| time (UTC) | temp F | wind direction | speed MPH | gust MPH | rain 1hr in | rain 24hr in | rain mn in | humidity % | barometer mb |
| 20260506062516 | 68 | 158 | 1.0 | 4.0 | 0.00 | 0.00 | 0.00 | 44 | 1005.6 |
| 20260506061536 | 68 | 158 | 1.0 | 6.0 | 0.00 | 0.00 | 0.00 | 43 | 1005.6 |
| 20260506060516 | 68 | 158 | 1.0 | 6.0 | 0.00 | 0.00 | 0.00 | 43 | 1005.7 |
| 20260506050516 | 64 | 0.0 | 2.0 | 0.00 | 0.00 | 0.00 | 47 | 1006.4 | |
| 20260506044516 | 63 | 0.0 | 1.0 | 0.00 | 0.00 | 0.00 | 52 | 1006.4 | |
| 20260506043516 | 64 | 0.0 | 0.0 | 0.00 | 0.00 | 0.00 | 51 | 1006.5 | |
| 20260506042516 | 66 | 0.0 | 0.0 | 0.00 | 0.00 | 0.00 | 47 | 1006.5 | |
| 20260506041516 | 67 | 0.0 | 0.0 | 0.00 | 0.00 | 0.00 | 43 | 1006.5 | |
| 20260506040516 | 68 | 0.0 | 2.0 | 0.00 | 0.00 | 0.00 | 39 | 1006.4 | |
| 20260506035516 | 69 | 158 | 1.0 | 4.0 | 0.00 | 0.00 | 0.00 | 37 | 1006.4 |
| 20260506034516 | 69 | 0.0 | 3.0 | 0.00 | 0.00 | 0.00 | 35 | 1006.3 | |
| 20260506033516 | 69 | 0.0 | 1.0 | 0.00 | 0.00 | 0.00 | 35 | 1006.3 | |
| 20260506032536 | 69 | 0.0 | 2.0 | 0.00 | 0.00 | 0.00 | 36 | 1006.3 | |
| 20260506031516 | 69 | 158 | 1.0 | 4.0 | 0.00 | 0.00 | 0.00 | 35 | 1006.3 |
| 20260506030536 | 69 | 158 | 1.0 | 4.0 | 0.00 | 0.00 | 0.00 | 35 | 1006.2 |
| 20260506025516 | 69 | 0.0 | 2.0 | 0.00 | 0.00 | 0.00 | 35 | 1006.3 | |
| 20260506024516 | 69 | 0.0 | 2.0 | 0.00 | 0.00 | 0.00 | 34 | 1006.3 | |
| 20260506023516 | 70 | 0.0 | 2.0 | 0.00 | 0.00 | 0.00 | 34 | 1006.3 | |
| 20260506022516 | 70 | 0.0 | 3.0 | 0.00 | 0.00 | 0.00 | 33 | 1006.3 | |
| 20260506021516 | 70 | 0.0 | 3.0 | 0.00 | 0.00 | 0.00 | 32 | 1006.3 | |
| 20260506020516 | 70 | 0.0 | 4.0 | 0.00 | 0.00 | 0.00 | 33 | 1006.3 | |
| 20260506015516 | 70 | 158 | 1.0 | 4.0 | 0.00 | 0.00 | 0.00 | 33 | 1006.3 |
| 20260506014516 | 70 | 0.0 | 1.0 | 0.00 | 0.00 | 0.00 | 34 | 1006.3 | |
| 20260506013516 | 70 | 158 | 1.0 | 4.0 | 0.00 | 0.00 | 0.00 | 35 | 1006.2 |
| 20260506012516 | 70 | 0.0 | 3.0 | 0.00 | 0.00 | 0.00 | 35 | 1006.0 | |
| 20260506011536 | 69 | 0.0 | 3.0 | 0.00 | 0.00 | 0.00 | 38 | 1006.0 | |
| 20260506010516 | 69 | 0.0 | 0.0 | 0.00 | 0.00 | 0.00 | 42 | 1005.8 | |
| 20260506005516 | 71 | 0.0 | 2.0 | 0.00 | 0.00 | 0.00 | 38 | 1005.7 | |
| 20260506004516 | 72 | 0.0 | 0.0 | 0.00 | 0.00 | 0.00 | 38 | 1005.7 | |
| 20260506003516 | 73 | 0.0 | 0.0 | 0.00 | 0.00 | 0.00 | 33 | 1005.6 | |
| 20260506002516 | 74 | 0.0 | 1.0 | 0.00 | 0.00 | 0.00 | 30 | 1005.3 | |
| 20260506001516 | 75 | 0.0 | 2.0 | 0.00 | 0.00 | 0.00 | 28 | 1005.3 | |
| 20260506000516 | 75 | 158 | 1.0 | 5.0 | 0.00 | 0.00 | 0.00 | 27 | 1005.2 |
| 20260505235516 | 76 | 158 | 2.0 | 6.0 | 0.00 | 0.00 | 0.00 | 27 | 1004.9 |
| 20260505234536 | 77 | 135 | 1.0 | 8.0 | 0.00 | 0.00 | 0.00 | 28 | 1004.9 |
| 20260505233516 | 77 | 135 | 1.0 | 5.0 | 0.00 | 0.00 | 0.00 | 27 | 1004.8 |
| 20260505232516 | 78 | 158 | 1.0 | 7.0 | 0.00 | 0.00 | 0.00 | 28 | 1004.7 |
| 20260505231516 | 78 | 158 | 2.0 | 9.0 | 0.00 | 0.00 | 0.00 | 28 | 1004.7 |
| 20260505230515 | 78 | 135 | 3.0 | 11.0 | 0.00 | 0.00 | 0.00 | 28 | 1004.7 |
| 20260505225536 | 78 | 158 | 2.0 | 9.0 | 0.00 | 0.00 | 0.00 | 27 | 1004.7 |
| 20260505224515 | 79 | 158 | 3.0 | 11.0 | 0.00 | 0.00 | 0.00 | 30 | 1004.7 |
| 20260505223515 | 79 | 158 | 2.0 | 5.0 | 0.00 | 0.00 | 0.00 | 29 | 1004.8 |
| 20260505222515 | 79 | 135 | 2.0 | 4.0 | 0.00 | 0.00 | 0.00 | 29 | 1004.8 |
| 20260505221516 | 79 | 158 | 2.0 | 7.0 | 0.00 | 0.00 | 0.00 | 27 | 1004.8 |
| 20260505220515 | 80 | 113 | 3.0 | 9.0 | 0.00 | 0.00 | 0.00 | 24 | 1004.7 |
| 20260505215535 | 80 | 135 | 3.0 | 17.0 | 0.00 | 0.00 | 0.00 | 24 | 1004.7 |
| 20260505214515 | 80 | 158 | 3.0 | 12.0 | 0.00 | 0.00 | 0.00 | 23 | 1004.7 |
| 20260505213515 | 81 | 158 | 3.0 | 11.0 | 0.00 | 0.00 | 0.00 | 23 | 1004.7 |
| 20260505212515 | 82 | 0 | 3.0 | 16.0 | 0.00 | 0.00 | 0.00 | 22 | 1004.6 |
| 20260505211515 | 83 | 135 | 4.0 | 13.0 | 0.00 | 0.00 | 0.00 | 22 | 1004.6 |
| 20260505210517 | 83 | 158 | 3.0 | 11.0 | 0.00 | 0.00 | 0.00 | 24 | 1004.4 |
| 20260505205537 | 83 | 180 | 3.0 | 13.0 | 0.00 | 0.00 | 0.00 | 23 | 1004.5 |
| 20260505204517 | 84 | 135 | 6.0 | 15.0 | 0.00 | 0.00 | 0.00 | 23 | 1004.5 |
| 20260505203537 | 84 | 135 | 4.0 | 15.0 | 0.00 | 0.00 | 0.00 | 24 | 1004.6 |
| 20260505202517 | 84 | 158 | 3.0 | 13.0 | 0.00 | 0.00 | 0.00 | 24 | 1004.7 |
| 20260505201517 | 83 | 135 | 3.0 | 12.0 | 0.00 | 0.00 | 0.00 | 24 | 1004.7 |
| 20260505200517 | 84 | 135 | 3.0 | 11.0 | 0.00 | 0.00 | 0.00 | 23 | 1004.8 |
| 20260505195517 | 84 | 135 | 3.0 | 7.0 | 0.00 | 0.00 | 0.00 | 25 | 1004.9 |
| 20260505194517 | 84 | 158 | 4.0 | 18.0 | 0.00 | 0.00 | 0.00 | 25 | 1004.9 |
| 20260505193517 | 84 | 135 | 5.0 | 15.0 | 0.00 | 0.00 | 0.00 | 26 | 1005.2 |
| 20260505192517 | 84 | 135 | 2.0 | 13.0 | 0.00 | 0.00 | 0.00 | 28 | 1005.5 |
| 20260505191517 | 84 | 135 | 3.0 | 12.0 | 0.00 | 0.00 | 0.00 | 28 | 1005.5 |
| 20260505190537 | 84 | 135 | 2.0 | 10.0 | 0.00 | 0.00 | 0.00 | 27 | 1005.7 |
| 20260505185517 | 84 | 135 | 3.0 | 11.0 | 0.00 | 0.00 | 0.00 | 27 | 1005.7 |
| 20260505184517 | 84 | 135 | 3.0 | 15.0 | 0.00 | 0.00 | 0.00 | 28 | 1005.7 |
| 20260505183517 | 85 | 158 | 3.0 | 12.0 | 0.00 | 0.00 | 0.00 | 27 | 1005.9 |
| 20260505182517 | 84 | 135 | 2.0 | 9.0 | 0.00 | 0.00 | 0.00 | 27 | 1006.2 |
| 20260505181517 | 83 | 158 | 2.0 | 6.0 | 0.00 | 0.00 | 0.00 | 27 | 1006.2 |
| 20260505180536 | 83 | 113 | 2.0 | 5.0 | 0.00 | 0.00 | 0.00 | 30 | 1006.3 |
| 20260505175517 | 83 | 135 | 3.0 | 10.0 | 0.00 | 0.00 | 0.00 | 29 | 1006.3 |
| 20260505174516 | 83 | 135 | 3.0 | 11.0 | 0.00 | 0.00 | 0.00 | 28 | 1006.3 |
| 20260505173517 | 83 | 135 | 4.0 | 17.0 | 0.00 | 0.00 | 0.00 | 28 | 1006.3 |
| 20260505172517 | 83 | 180 | 3.0 | 14.0 | 0.00 | 0.00 | 0.00 | 27 | 1006.3 |
| 20260505171517 | 84 | 180 | 2.0 | 9.0 | 0.00 | 0.00 | 0.00 | 27 | 1006.4 |
| 20260505170536 | 83 | 180 | 1.0 | 9.0 | 0.00 | 0.00 | 0.00 | 27 | 1006.8 |
| 20260505165516 | 83 | 180 | 1.0 | 8.0 | 0.00 | 0.00 | 0.00 | 27 | 1007.1 |
| 20260505164516 | 82 | 248 | 2.0 | 11.0 | 0.00 | 0.00 | 0.00 | 28 | 1007.0 |
| 20260505163516 | 82 | 270 | 3.0 | 11.0 | 0.00 | 0.00 | 0.00 | 29 | 1007.3 |
| 20260505162517 | 82 | 203 | 1.0 | 4.0 | 0.00 | 0.00 | 0.00 | 30 | 1007.6 |
| 20260505161516 | 81 | 248 | 2.0 | 11.0 | 0.00 | 0.00 | 0.00 | 29 | 1007.5 |
| 20260505160536 | 80 | 203 | 2.0 | 10.0 | 0.00 | 0.00 | 0.00 | 37 | 1007.8 |
| 20260505152516 | 80 | 180 | 1.0 | 4.0 | 0.00 | 0.00 | 0.00 | 34 | 1007.8 |
| 20260505151516 | 80 | 158 | 2.0 | 7.0 | 0.00 | 0.00 | 0.00 | 33 | 1007.8 |
| 20260505150536 | 79 | 180 | 1.0 | 7.0 | 0.00 | 0.00 | 0.00 | 34 | 1007.8 |
| 20260505140516 | 76 | 180 | 1.0 | 5.0 | 0.00 | 0.00 | 0.00 | 38 | 1007.9 |
| 20260505124516 | 69 | 158 | 2.0 | 9.0 | 0.00 | 0.00 | 0.00 | 47 | 1008.4 |
| 20260505123516 | 68 | 158 | 1.0 | 6.0 | 0.00 | 0.00 | 0.00 | 50 | 1008.7 |
| 20260505122536 | 68 | 158 | 1.0 | 4.0 | 0.00 | 0.00 | 0.00 | 51 | 1008.9 |
| 20260505121516 | 66 | 158 | 1.0 | 6.0 | 0.00 | 0.00 | 0.00 | 54 | 1008.9 |
| 20260505121035 | 65 | 158 | 1.0 | 7.0 | 0.00 | 0.00 | 0.00 | 54 | 1008.9 |
| 20260505120037 | 64 | 158 | 1.0 | 3.0 | 0.00 | 0.00 | 0.00 | 59 | 1008.8 |
| 20260505115017 | 62 | 0.0 | 2.0 | 0.00 | 0.00 | 0.00 | 65 | 1008.8 | |
| 20260505114037 | 59 | 158 | 1.0 | 4.0 | 0.00 | 0.00 | 0.00 | 71 | 1008.6 |
| 20260505113016 | 57 | 0.0 | 2.0 | 0.00 | 0.00 | 0.00 | 76 | 1008.4 | |
| 20260505112037 | 55 | 0.0 | 2.0 | 0.00 | 0.00 | 0.00 | 82 | 1008.4 | |
| 20260505111016 | 55 | 0.0 | 0.0 | 0.00 | 0.00 | 0.00 | 81 | 1008.3 | |
| 20260505102016 | 57 | 0.0 | 0.0 | 0.00 | 0.00 | 0.00 | 70 | 1007.9 | |
| 20260505101016 | 58 | 0.0 | 1.0 | 0.00 | 0.00 | 0.00 | 68 | 1007.6 | |
| 20260505100016 | 59 | 0.0 | 0.0 | 0.00 | 0.00 | 0.00 | 66 | 1007.5 | |
| 20260505095016 | 59 | 0.0 | 3.0 | 0.00 | 0.00 | 0.00 | 65 | 1007.5 | |
| 20260505094016 | 59 | 0.0 | 3.0 | 0.00 | 0.00 | 0.00 | 65 | 1007.3 | |
| 20260505093016 | 59 | 0.0 | 1.0 | 0.00 | 0.00 | 0.00 | 65 | 1007.3 | |
| 20260505092016 | 59 | 0.0 | 2.0 | 0.00 | 0.00 | 0.00 | 65 | 1007.3 | |
| 20260505091016 | 59 | 158 | 1.0 | 4.0 | 0.00 | 0.00 | 0.00 | 66 | 1007.3 |
| 20260505090016 | 59 | 0.0 | 4.0 | 0.00 | 0.00 | 0.00 | 66 | 1007.3 | |
| 20260505085016 | 59 | 0.0 | 3.0 | 0.00 | 0.00 | 0.00 | 66 | 1007.3 | |
| 20260505084016 | 59 | 158 | 1.0 | 7.0 | 0.00 | 0.00 | 0.00 | 65 | 1007.2 |
| 20260505083016 | 59 | 158 | 1.0 | 3.0 | 0.00 | 0.00 | 0.00 | 65 | 1007.2 |
| 20260505082016 | 59 | 158 | 1.0 | 4.0 | 0.00 | 0.00 | 0.00 | 65 | 1007.2 |
| 20260505080539 | 59 | 158 | 1.0 | 3.0 | 0.00 | 0.00 | 0.00 | 64 | 1007.0 |
| 20260505080016 | 60 | 0.0 | 2.0 | 0.00 | 0.00 | 0.00 | 64 | 1007.0 | |
| 20260505075016 | 60 | 158 | 1.0 | 3.0 | 0.00 | 0.00 | 0.00 | 64 | 1007.0 |
| 20260505074016 | 60 | 158 | 1.0 | 3.0 | 0.00 | 0.00 | 0.00 | 64 | 1006.8 |
| 20260505073016 | 60 | 158 | 1.0 | 4.0 | 0.00 | 0.00 | 0.00 | 63 | 1006.8 |
| 20260505072016 | 60 | 158 | 1.0 | 4.0 | 0.00 | 0.00 | 0.00 | 64 | 1006.8 |
| 20260505071016 | 60 | 158 | 1.0 | 3.0 | 0.00 | 0.00 | 0.00 | 64 | 1006.7 |